Regional Weather Roundup
Issued by NWS Cleveland, OH

Home | Current Version | Previous Version | Text Only | Print | Product List | Glossary Off
Versions: 1 2 3 4 5 6 7 8 9 10 11 12 13 14 15 16 17 18 19 20 21 22 23 24 25 26 27 28 29 30 31 32 33 34 35 36 37 38 39 40 41 42 43 44 45 46 47 48 49 50

000
ASUS41 KCLE 252102
RWRCLE
OHIO REGIONAL WEATHER ROUNDUP
NATIONAL WEATHER SERVICE CLEVELAND, OH
500 PM EDT MON JUL 25 2016

NOTE: "FAIR" INDICATES FEW OR NO CLOUDS BELOW 12,000 FEET WITH NO
SIGNIFICANT WEATHER AND/OR OBSTRUCTIONS TO VISIBILITY.

OHZ001>008-015>018-024>027-034-035-043-044-252200-
   NORTHWEST OHIO

CITY           SKY/WX    TMP DP  RH WIND       PRES   REMARKS
DEFIANCE       SUNNY     89  66  46 NW6       29.94F HX  91
FINDLAY        CLOUDY    90  66  45 W13       29.94F HX  92
TOLEDO EXPRESS MOSUNNY   87  68  52 NW13      29.93F HX  90
TOLEDO EXEC    MOSUNNY   89  70  53 W13       29.93F HX  94
LIMA           MOSUNNY   86  72  62 NW10      29.96F HX  92
$$

OHZ009>014-019>023-028>033-038-089-252200-
   NORTHEAST OHIO

CITY           SKY/WX    TMP DP  RH WIND       PRES   REMARKS
CLE-HOPKINS    PTSUNNY   90  69  50 W14       29.93F HX  94
CLE-LAKEFRONT  CLOUDY    84  73  69 NW13      29.91F HX  90
CUY CO. ARPT   PTSUNNY   88  73  62 NW14      29.94F HX  96
LORAIN-ELYRIA  CLOUDY    85  71  63 W12       29.94S HX  90
ASHTABULA      CLOUDY    83  70  64 W13       29.93F
AKRON-CANTON   PTSUNNY   89  65  44 W12       29.94F HX  91
WOOSTER        SUNNY     87  66  49 NW13      29.95F
MANSFIELD      SUNNY     89  65  44 SW8       29.97F HX  91
YOUNGSTOWN     CLOUDY    87  70  56 W12       29.93F HX  92
$$

OHZ042-051>053-060>062-070>072-077>081-252200-
  SOUTHWEST OHIO

CITY           SKY/WX    TMP DP  RH WIND       PRES   REMARKS
CINC-COVINGTON PTSUNNY   93  70  46 NW8       29.98R HX  99
CINC-LUNKEN    PTSUNNY   93  71  48 N9        29.95S HX 100
HAMILTON       MOSUNNY   93  69  45 NW13      29.97F HX  98
DAYTON         PTSUNNY   89  66  46 W13       29.99F HX  91
WRIGHT-PAT AFB NOT AVBL
DAYTON GENERAL CLOUDY    90  63  40 NW9G22    29.97F HX  91
WILMINGTON     MOSUNNY   91  68  46 NW8G22    29.97S HX  95
$$

OHZ036-037-039>041-045>050-054>059-063>069-073>076-082>088-252200-
  CENTRAL AND SOUTHEAST OHIO

CITY           SKY/WX    TMP DP  RH WIND       PRES   REMARKS
COLUMBUS       PTSUNNY   90  70  51 VRB6      29.94F HX  95
OSU AIRPORT    SUNNY     89  70  53 W6        29.96S HX  94
BOLTON FIELD   SUNNY     91  72  52 W13       29.96F HX  98
RICKENBACK AFB SUNNY     91  69  48 W10       29.94F HX  95
NEWARK         CLOUDY    90  71  53 NW8       29.94F HX  96
MARION         SUNNY     89  63  41 W9        29.96F HX  90
LANCASTER      MOSUNNY   90  72  55 W8        29.95F HX  97
ZANESVILLE     CLOUDY    95  70  44 NW9       29.93F HX 101
NEW PHILLY     CLOUDY    95  67  39 W12       29.93F HX  99
$$



USA.gov is the U.S. government's official web portal to all federal, state and local government web resources and services.